When you browse on this site, cookies collect data to enhance your experience and personalize the content and advertising you see.
Visit our Privacy Policy to learn more. By continuing to use the site, you agree to this use of cookies and data.
EN

Hourly Weather Encamp

Today, 11 August, Tuesday

Time Temperature Precipitation Wind Pressure Humidity
00:00 +16°C° 0 mm 1 mps 626 mmHg 58%
01:00 +16°C° 0 mm 1 mps 625 mmHg 60%
02:00 +15°C° 0 mm 1 mps 625 mmHg 61%
03:00 +15°C° 0 mm 1 mps 625 mmHg 63%
04:00 +15°C° 0 mm 1 mps 625 mmHg 63%
05:00 +16°C° 0 mm 1 mps 625 mmHg 63%
06:00 +16°C° 0 mm 1 mps 625 mmHg 62%
07:00 +18°C° 0 mm 2 mps 626 mmHg 54%
08:00 +21°C° 0 mm 2 mps 627 mmHg 46%
09:00 +24°C° 0 mm 2 mps 628 mmHg 38%
10:00 +25°C° 0 mm 2 mps 629 mmHg 36%
11:00 +26°C° 0 mm 2 mps 629 mmHg 34%
12:00 +27°C° 0 mm 2 mps 629 mmHg 32%
13:00 +27°C° 0 mm 2 mps 629 mmHg 34%
14:00 +26°C° 0 mm 2 mps 628 mmHg 36%
15:00 +26°C° 0 mm 2 mps 627 mmHg 38%
16:00 +25°C° 0 mm 2 mps 627 mmHg 44%
17:00 +23°C° 0 mm 2 mps 626 mmHg 51%
18:00 +22°C° 0 mm 1 mps 626 mmHg 57%
19:00 +20°C° 0.1 mm 1 mps 626 mmHg 63%
20:00 +19°C° 0.1 mm 1 mps 625 mmHg 68%
21:00 +16°C° 0.1 mm 2 mps 625 mmHg 74%
22:00 +16°C° 0 mm 1 mps 625 mmHg 72%
23:00 +16°C° 0 mm 1 mps 625 mmHg 69%

Tomorrow, 12 August, Wednesday

Time Temperature Precipitation Wind Pressure Humidity
00:00 +16°C° 0 mm 1 mps 625 mmHg 67%
01:00 +16°C° 0 mm 1 mps 625 mmHg 67%
02:00 +15°C° 0 mm 1 mps 625 mmHg 67%
03:00 +15°C° 0 mm 1 mps 624 mmHg 66%
04:00 +15°C° 0 mm 1 mps 625 mmHg 66%
05:00 +15°C° 0 mm 1 mps 625 mmHg 65%
06:00 +15°C° 0 mm 1 mps 625 mmHg 65%
07:00 +17°C° 0 mm 2 mps 625 mmHg 58%
08:00 +19°C° 0 mm 2 mps 626 mmHg 52%
09:00 +21°C° 0 mm 3 mps 627 mmHg 45%
10:00 +22°C° 0 mm 4 mps 627 mmHg 44%
11:00 +22°C° 0 mm 4 mps 627 mmHg 43%
12:00 +23°C° 0 mm 5 mps 627 mmHg 41%
13:00 +22°C° 0.7 mm 4 mps 626 mmHg 50%
14:00 +20°C° 0.7 mm 3 mps 626 mmHg 59%
15:00 +19°C° 0.7 mm 2 mps 625 mmHg 68%
16:00 +18°C° 1.4 mm 2 mps 624 mmHg 73%
17:00 +17°C° 1.4 mm 2 mps 624 mmHg 78%
18:00 +15°C° 1.4 mm 1 mps 624 mmHg 84%
19:00 +15°C° 0 mm 1 mps 624 mmHg 83%
20:00 +14°C° 0 mm 1 mps 624 mmHg 82%
21:00 +13°C° 0 mm 1 mps 624 mmHg 82%
22:00 +13°C° 0 mm 1 mps 624 mmHg 82%
23:00 +13°C° 0 mm 1 mps 624 mmHg 82%

Day after tomorrow, 13 August, Thursday

Time Temperature Precipitation Wind Pressure Humidity
00:00 +12°C° 0 mm 1 mps 624 mmHg 82%
01:00 +12°C° 0 mm 1 mps 624 mmHg 82%
02:00 +12°C° 0 mm 1 mps 624 mmHg 82%
03:00 +12°C° 0 mm 1 mps 624 mmHg 82%
04:00 +12°C° 0 mm 1 mps 624 mmHg 82%
05:00 +13°C° 0 mm 1 mps 625 mmHg 82%
06:00 +12°C° 0 mm 0 mps 625 mmHg 82%
07:00 +15°C° 0 mm 1 mps 626 mmHg 73%
08:00 +18°C° 0 mm 1 mps 627 mmHg 64%
09:00 +19°C° 0 mm 2 mps 628 mmHg 55%
10:00 +20°C° 0 mm 2 mps 628 mmHg 52%
11:00 +21°C° 0 mm 2 mps 628 mmHg 49%
12:00 +22°C° 0 mm 3 mps 628 mmHg 46%
13:00 +22°C° 0.2 mm 3 mps 628 mmHg 49%
14:00 +21°C° 0.2 mm 2 mps 628 mmHg 52%
15:00 +21°C° 0.2 mm 2 mps 627 mmHg 55%
16:00 +20°C° 0.2 mm 2 mps 627 mmHg 61%
17:00 +20°C° 0.2 mm 1 mps 627 mmHg 66%
18:00 +19°C° 0.2 mm 1 mps 626 mmHg 71%
19:00 +16°C° 0 mm 1 mps 626 mmHg 77%
20:00 +15°C° 0 mm 1 mps 626 mmHg 82%
21:00 +13°C° 0 mm 1 mps 625 mmHg 87%
22:00 +13°C° 0 mm 1 mps 625 mmHg 86%
23:00 +13°C° 0 mm 1 mps 625 mmHg 86%

14 August, Friday

Time Temperature Precipitation Wind Pressure Humidity
00:00 +12°C° 0 mm 1 mps 625 mmHg 86%
01:00 +12°C° 0 mm 1 mps 625 mmHg 85%
02:00 +12°C° 0 mm 1 mps 625 mmHg 85%
03:00 +12°C° 0 mm 1 mps 625 mmHg 84%
04:00 +12°C° 0 mm 1 mps 625 mmHg 83%
05:00 +13°C° 0 mm 1 mps 625 mmHg 82%
06:00 +13°C° 0 mm 1 mps 625 mmHg 81%
07:00 +16°C° 0 mm 1 mps 626 mmHg 69%
08:00 +20°C° 0 mm 1 mps 627 mmHg 57%
09:00 +23°C° 0 mm 1 mps 629 mmHg 45%
10:00 +23°C° 0 mm 2 mps 629 mmHg 42%
11:00 +24°C° 0 mm 2 mps 629 mmHg 38%
12:00 +25°C° 0 mm 3 mps 629 mmHg 34%
13:00 +25°C° 0 mm 3 mps 628 mmHg 37%
14:00 +24°C° 0 mm 2 mps 628 mmHg 40%
15:00 +24°C° 0 mm 2 mps 627 mmHg 43%
16:00 +23°C° 0.1 mm 2 mps 627 mmHg 52%
17:00 +22°C° 0.1 mm 1 mps 626 mmHg 60%
18:00 +20°C° 0.1 mm 1 mps 626 mmHg 69%
19:00 +19°C° 0 mm 1 mps 625 mmHg 73%
20:00 +16°C° 0 mm 1 mps 625 mmHg 76%
21:00 +15°C° 0 mm 1 mps 625 mmHg 79%
22:00 +14°C° 0 mm 1 mps 624 mmHg 79%
23:00 +14°C° 0 mm 1 mps 624 mmHg 79%

15 August, Saturday

Time Temperature Precipitation Wind Pressure Humidity
00:00 +14°C° 0 mm 1 mps 624 mmHg 80%
01:00 +14°C° 0 mm 1 mps 624 mmHg 78%
02:00 +14°C° 0 mm 1 mps 624 mmHg 77%
03:00 +14°C° 0 mm 1 mps 623 mmHg 76%
04:00 +14°C° 0 mm 1 mps 624 mmHg 72%
05:00 +14°C° 0 mm 1 mps 624 mmHg 68%
06:00 +15°C° 0 mm 1 mps 624 mmHg 65%
07:00 +19°C° 0 mm 1 mps 625 mmHg 55%
08:00 +21°C° 0 mm 1 mps 626 mmHg 45%
09:00 +24°C° 0 mm 2 mps 627 mmHg 36%
10:00 +25°C° 0 mm 2 mps 627 mmHg 34%
11:00 +26°C° 0 mm 2 mps 627 mmHg 32%
12:00 +27°C° 0 mm 3 mps 627 mmHg 31%
13:00 +26°C° 0 mm 3 mps 627 mmHg 33%
14:00 +26°C° 0 mm 3 mps 627 mmHg 34%
15:00 +26°C° 0 mm 3 mps 626 mmHg 36%
16:00 +24°C° 0.1 mm 2 mps 626 mmHg 46%
17:00 +23°C° 0.1 mm 1 mps 625 mmHg 55%
18:00 +21°C° 0.1 mm 1 mps 624 mmHg 65%
19:00 +20°C° 0.1 mm 1 mps 624 mmHg 69%
20:00 +18°C° 0.1 mm 1 mps 624 mmHg 73%
21:00 +15°C° 0.1 mm 1 mps 623 mmHg 77%
22:00 +15°C° 0 mm 1 mps 623 mmHg 78%
23:00 +15°C° 0 mm 1 mps 623 mmHg 78%

16 August, Sunday

Time Temperature Precipitation Wind Pressure Humidity
00:00 +14°C° 0 mm 1 mps 623 mmHg 78%
01:00 +14°C° 0 mm 1 mps 623 mmHg 76%
02:00 +14°C° 0 mm 1 mps 623 mmHg 74%
03:00 +14°C° 0 mm 1 mps 623 mmHg 72%
04:00 +14°C° 0 mm 1 mps 623 mmHg 73%
05:00 +14°C° 0 mm 1 mps 623 mmHg 73%
06:00 +14°C° 0 mm 1 mps 624 mmHg 74%
07:00 +18°C° 0 mm 1 mps 625 mmHg 65%
08:00 +20°C° 0 mm 1 mps 626 mmHg 55%
09:00 +23°C° 0 mm 2 mps 627 mmHg 46%
10:00 +24°C° 0 mm 2 mps 627 mmHg 43%
11:00 +24°C° 0 mm 3 mps 627 mmHg 39%
12:00 +25°C° 0 mm 3 mps 627 mmHg 36%
13:00 +25°C° 0 mm 3 mps 627 mmHg 37%
14:00 +24°C° 0 mm 3 mps 626 mmHg 39%
15:00 +24°C° 0 mm 3 mps 626 mmHg 40%
16:00 +22°C° 0 mm 3 mps 625 mmHg 48%
17:00 +20°C° 0 mm 2 mps 625 mmHg 56%
18:00 +19°C° 0 mm 1 mps 624 mmHg 64%
19:00 +18°C° 0 mm 1 mps 624 mmHg 69%
20:00 +15°C° 0 mm 1 mps 624 mmHg 74%
21:00 +13°C° 0 mm 0 mps 623 mmHg 79%
22:00 +13°C° 0 mm 0 mps 623 mmHg 80%
23:00 +13°C° 0 mm 0 mps 623 mmHg 80%
Show more